FENGYUN 1C DEB

Satellite information

Favourite Embed

Satellite Type and Status

DEBRISIN ORBIT

Key statistics

Satellite FENGYUN 1C DEB at a glance.

Uptime

9656

Days in orbit

Revolutions

≈ 14.2

Per day

Orbit

SSO

Sun Synchronous Orbit

Inclination

98.7

Latest

Satellite identification and parameters

Extended collection of information and parameters for FENGYUN 1C DEB.

Object identification

Identified? True

Debris? True

Object name: FENGYUN 1C DEB

International designator: 1999-025EYM

Object number (NORAD): 43213

Object ID (CCSDS): 43213

Country: PEOPLES REPUBLIC OF CHINA (PRC)

Current information (Y/N): Y

RCS size: SMALL

Orbital parameters

Period: 101.172 minutes

Inclination: 98.7391 deg

SMA: 7192.303 km

Apoapsis: 853.011 km

Periapsis: 775.325 km

RAAN: 353.4551 deg

Eccentricy: 0.0054006

Argument of periapsis: 38.6552 deg

Mean anomaly: 321.8473 deg

Mean motion: 14.23314276 rev/day

Mean motion (dot): 0.00003506 rev/day2

B* drag term: 0.0015429 1/REarth

Two-line elements (TLE)

Creation date: Oct. 15, 2025, 11:56 p.m.

Reference frame: TEME

Reference center: EARTH

Epoch: Oct. 15, 2025, 3:33 p.m. UTC

TLE line 0: 0 FENGYUN 1C DEB

TLE line 1: 1 43213U 99025EYM 25288.64806141 .00003506 00000-0 15429-2 0 9990

TLE line 2: 2 43213 98.7391 353.4551 0054006 38.6552 321.8473 14.23314276395460

Live tracking on map

Real-time ground track for satellite FENGYUN 1C DEB.

In-orbit conjunctions

A list of the most updated potential collisions computed for object FENGYUN 1C DEB.

Target Orbit TCA Probability of collision Miss distance Type
NOAA 16 SSO 2025-10-13 04:05:41 0.0001020064 212.0 (m) PAYLOAD
COSMOS 252 DEB * LEO 2024-11-09 04:26:33 0.0003039695 638.0 (m) DEBRIS

Associated space launch

Chinese polar orbiting meteorological satellite

FENGYUN 1C DEB was lifted into orbit during the mission ‘Long March 4B | Feng Yun 1C’, on board a Long March 4B space rocket.

The launch took place on May 10, 1999, 1:33 a.m. from Launch Complex 7.

For more information about the launch, click the button.

Launch to space Long March 4B | Feng Yun 1C
Long March 4B | Feng Yun 1C

Agency: N/A

Status: Launch Successful

Launch date: May 10, 1999, 1:33 a.m. UTC

Rocket: Long March 4B

Launch pad: Launch Complex 7

Location: Taiyuan Satellite Launch Center, People's Republic of China

...

Latest news about this satellite

There are no fresh news available about this satellite. Check back as we update our databases every day.


Newsletter sign-up

Weekly statistics, charts and insights to help you stay on top of the space industry.